www.pogodaiklimat.ru

Погода и климат >> Архив погоды >> Антарктида >> Прогресс


ПОГОДА на Прогрессе

  • Прогноз погоды на Прогрессе
  • Монитор погоды на Прогрессе

АРХИВ ПОГОДЫ на Прогрессе

Время (UTC), дата Ветер
(напр.,м/с)
 
Видим.   Явления Облачность Т
(С)
Тd
(С)
f
(%)
Тe
(С)
Тes
(С)
Комфортность P
(гПа)
Po
(гПа)
Тmin
(С)
Tmax
(С)
R
(мм)
R24
(мм)
S
(см)
00 13.08 В 4
{6}
20 км 10/0
[As trans]
-10.9 -18.1 55 -17 -17 978.7 976.8 -13.4
06 13.08 В 2
{6}
20 км 9/0
[Ac trans]
-12.3 -19.8 54 -17 -17 977.8 976.0
12 13.08 В 3 20 км 10/9 1000 м
[Sc]
-13.9 -20.2 59 -20 -20 977.2 975.3 -10.9
18 13.08 В 2 20 км 10/0
[As op]
-13.0 -19.6 58 -17 -17 976.6 974.7
00 14.08 СВ 1 20 км 10/0
[As op]
-13.5 -17.3 73 -16 -16 976.4 974.5 -13.9
06 14.08 СВ 3
{6}
20 км 10/0
[As op]
-12.9 -18.8 61 -18 -18 976.5 974.6
12 14.08 З 2 2000 м снег 10/8 600 м
[Frnb As op]
-20.3 -22.5 83 -26 -26 978.4 976.5 -12.8 0.4
18 14.08 З 1 2000 м снег 10/8 600 м
[Frnb As op]
-22.3 -24.5 82 -26 -26 981.0 979.0
00 15.08 В 1 4000 м слаб. снег 10/8 600 м
[Frnb As op]
-20.6 -22.8 82 -21 -21 981.3 979.4 -23.2 0.9
06 15.08 СВ 2 4000 м слаб. снег 10/8 600 м
[Frnb As op]
-20.1 -26 -26 983.5 981.6
12 15.08 З 1
{6}
4000 м слаб. снег 10/8 600 м
[Frnb As op]
-20.4 -22.4 84 -21 -21 988.0 986.1 -17.3 0.4
18 15.08 З 1 4000 м слаб. снег 10/8 600 м
[Frnb As op]
-20.4 -22.3 85 -24 -24 990.8 988.8
00 16.08 ЮЗ 1 4000 м слаб. снег 10/8 600 м
[Frnb As op]
-22.0 -24.1 83 -25 -25 993.9 991.9 -22.2 0.7
06 16.08 В 1 4000 м мгла {снег} 10/0
[Ac trans Cs]
-26.9 -29.6 78 -28 -28 996.7 994.7
12 16.08 штиль 0 20 км ясно -33.8 -37.2 71 -34 -34 опасность
обморожения
996.3 994.2 -22.0
18 16.08 В 1 20 км 1/0
[Ac trans]
-36.1 -39.8 69 -38 -38 опасность
обморожения
991.8 989.7
00 17.08 ЮВ 1 20 км ясно -30.8 -33.9 74 -32 -32 опасность
обморожения
987.6 985.6 -36.4
06 17.08 нст 1 20 км 1/0
[Ac trans]
-27.7 -30.4 78 -29 -28 986.5 984.5
12 17.08 В 1 20 км ясно -24.9 -27.4 80 -29 -29 985.0 983.0 -24.3
18 17.08 З 1 20 км ясно -23.8 -26.7 77 -25 -25 981.8 979.8
00 18.08 В 3 20 км 10/0
[As trans]
-18.7 -21.8 76 -25 -25 976.4 974.5 -24.9
06 18.08 В 6
{7}
10 км позёмок 10/10 600 м
[Sc]
-10.3 -13.9 75 -19 -19 971.6 969.8
12 18.08 В 3
{7}
10 км {снег, метель} 10/10 600 м
[Sc]
-9.4 -12.8 76 -15 -15 968.5 966.7 -9.4 0.2
18 18.08 ЮВ 1 4000 м слаб. снег 10/10 300 м
[Sc]
-10.0 -12.2 84 -12 -12 965.9 964.1
00 19.08 В 1 2000 м снег 10/8 300 м
[Frnb As op]
-9.2 -10.2 92 -10 -10 966.2 964.4 -10.3 1
06 19.08 В 3
{6}
4000 м слаб. снег 10/8 600 м
[Frnb As op]
-8.9 -10.2 90 -14 -14 969.7 967.9
12 19.08 В 6
{9}
10 км позёмок {снег} 10/0
[Ac As Cs]
-9.3 -11.6 83 -18 -18 973.4 971.6 -8.9 4
18 19.08 В 6
{10}
10 км позёмок 10/10 300 м
[Sc]
-9.6 -12.5 79 -18 -18 975.0 973.2

 

Местоположение метеостанции Прогресс (Антарктида): широта -69.38 долгота 76.38 высота над уровнем моря 64 м.

В архиве по умолчанию представлена погода на Прогрессе за последнюю неделю. Архивные данные за месяц целиком и за предыдущие месяцы, начиная с января 2011 года, Вы можете получить, выбрав интересующий диапазон дат из раскрывающегося списка и нажав кнопку "Ввод!".


*Определитесь, кто Вы:
робот инопланетянин человек

Внимание! Время в таблицах - всемирное. Для получения местного времени необходимо прибавить поправку, которая равна 0 ч.

Смотрите также архив погоды в соседних городах и на ближайших метеорологических станциях:

Погода на Дэвисе (Антарктида) (1 км)
Погода на Бхарати (Антарктида) (8 км)
Погода на Davis (Антарктида) (109 км)
Погода на Дружной-4 (Антарктида) (111 км)
Погода на Davis (Whoop Whoop) (Антарктида) (141 км)
Погода на Леднике Эймери (Антарктида) (298 км)
Погода на Моусоне (Антарктида) (584 км)
Погода в Мирном (Антарктида) (759 км)
Погода на Dome Plateau Eagle (Антарктида) (782 км)
Погода на Davis АМС (Антарктида) (1222 км)

Пояснения к столбцам:

Ветер - указаны скорость ветра в м/с - средняя за 10 мин, порывы в срок и между сроками (в фигурных скобках) и направление, откуда дует ветер: С - северный, СВ - северо-восточный, В - восточный, ЮВ - юго-восточный, Ю - южный, ЮЗ - юго-западный, З - западный, СЗ - северо-западный.
Видимость - горизонтальная дальность видимости в метрах или километрах. При видимости от 1 до 10 км при отсутствии осадков обычно наблюдается дымка, при ухудшении видимости до 1 км и менее - туман. В сухую погоду видимость может ухудшаться дымом, пылью или мглою.
Явления - указаны атмосферные явления, наблюдавшиеся в срок или в последний час перед сроком; фигурными скобками обозначены явления, наблюдавшиеся между сроками (за 1-3 часа до срока); квадратными скобками обозначены град или гололедные отложения с указанием их диаметра в мм.
Облачность - указаны через наклонную черту общая и нижняя облачность в баллах и высота нижней границы облаков в метрах; квадратными скобками обозначены формы облаков: Ci - перистые, Cs - перисто-слоистые, Cc - перисто-кучевые, Ac - высококучевые, As - высокослоистые, Sc - слоисто-кучевые, Ns - слоисто-дождевые, Cu - кучевые, Cb - кучево-дождевые. Подробнее классификацию облаков см. в Атласе облаков (PDF).
T - Температура воздуха - температура, измеренная на высоте 2 м над землей.
Td - Температура точки росы - температура, при понижении до которой содержащийся в воздухе водяной пар достигнет насыщения.
f - Относительная влажность воздуха - влажноcть воздуха, измеренная на высоте 2 м над землей.
Te - Эффективная температура - температура, которую ощущает одетый по сезону человек в тени. Характеристика душности погоды. При расчете учитывается влияние влажности воздуха и скорости ветра на теплоощущения человека.
Tes - Эффективная температура на солнце - температура, которую ощущает человек, с поправкой на солнечный нагрев. Характеристика знойности погоды. Зависит от высоты солнца над горизонтом, облачности и скорости ветра. Ночью, в пасмурную погоду, а также при ветре 12 м/с и более поправка равна нулю.
P - Атмосферное давление - приведенное к уровню моря атмосферное давление.
Po - Атмосферное давление - измеренное на уровне метеостанции атмосферное давление.
Tmin - Минимальная температура - минимум температуры воздуха на высоте 2 м над землей.
Tmax - Максимальная температура - максимум температуры воздуха на высоте 2 м над землей.
R - Количество осадков - Количество выпавших осадков за период времени, мм. При наведении курсора мыши на число - период времени, за который выпало указанное количество осадков.
R24 - Количество осадков - Количество выпавших осадков за 24 часа, мм.
S - Снежный покров - Высота снежного покрова, см. При наведении курсора мыши на число - состояние снежного покрова и степень покрытия местности в баллах.